2023/01/25 00:00:00,45.0,-4.7
2023/01/25 00:10:00,45.5,-4.8
2023/01/25 00:20:00,45.7,-4.8
2023/01/25 00:30:00,46.1,-4.8
2023/01/25 00:40:00,46.1,-4.8
2023/01/25 00:50:00,46.3,-5.4
2023/01/25 01:00:00,46.7,-5.1
2023/01/25 01:10:00,47.1,-5.2
2023/01/25 01:20:00,47.8,-5.3
2023/01/25 01:30:00,48.2,-5.2
2023/01/25 01:40:00,48.6,-5.3
2023/01/25 01:50:00,48.6,-4.9
2023/01/25 02:00:00,48.4,-4.8
2023/01/25 02:10:00,48.6,-4.8
2023/01/25 02:20:00,48.7,-4.9
2023/01/25 02:30:00,48.7,-5.1
2023/01/25 02:40:00,48.8,-5.0
2023/01/25 02:50:00,49.0,-5.0
2023/01/25 03:00:00,48.7,-5.0
2023/01/25 03:10:00,48.7,-4.9
2023/01/25 03:20:00,48.7,-4.9
2023/01/25 03:30:00,48.8,-4.9
2023/01/25 03:40:00,49.0,-5.0
2023/01/25 03:50:00,48.9,-4.8
2023/01/25 04:00:00,48.6,-4.8
2023/01/25 04:10:00,48.2,-4.6
2023/01/25 04:20:00,48.0,-4.6
2023/01/25 04:30:00,48.1,-4.6
2023/01/25 04:40:00,48.1,-4.6
2023/01/25 04:50:00,47.8,-4.6
2023/01/25 05:00:00,47.9,-4.6
2023/01/25 05:10:00,47.7,-4.5
2023/01/25 05:20:00,47.7,-4.4
2023/01/25 05:30:00,47.7,-4.7
2023/01/25 05:40:00,47.6,-4.8
2023/01/25 05:50:00,47.3,-4.6
2023/01/25 06:00:00,47.1,-4.9
2023/01/25 06:10:00,47.1,-4.6
2023/01/25 06:20:00,47.7,-4.9
2023/01/25 06:30:00,47.6,-4.8
2023/01/25 06:40:00,47.4,-4.8
2023/01/25 06:50:00,47.2,-4.7
2023/01/25 07:00:00,51.8,-4.4
2023/01/25 07:10:00,56.8,-4.8
2023/01/25 07:20:00,56.8,-4.6
2023/01/25 07:30:00,56.6,-4.6
2023/01/25 07:40:00,56.6,-4.4
2023/01/25 07:50:00,56.9,-4.2
2023/01/25 08:00:00,56.9,-4.1
2023/01/25 08:10:00,57.0,-4.2
2023/01/25 08:20:00,57.0,-3.7
2023/01/25 08:30:00,57.0,-4.0
2023/01/25 08:40:00,57.3,-3.8
2023/01/25 08:50:00,57.3,-3.3
2023/01/25 09:00:00,57.3,-3.7
2023/01/25 09:10:00,57.6,-3.6
2023/01/25 09:20:00,57.9,-2.4
2023/01/25 09:30:00,57.7,-2.6
2023/01/25 09:40:00,57.5,-3.1
2023/01/25 09:50:00,57.5,-1.1
2023/01/25 10:00:00,57.4,-1.9
2023/01/25 10:10:00,57.4,-1.7
2023/01/25 10:20:00,57.2,-0.8
2023/01/25 10:30:00,56.8,-2.3
2023/01/25 10:40:00,57.3,-1.3
2023/01/25 10:50:00,57.1,-2.2
2023/01/25 11:00:00,57.2,-1.8
2023/01/25 11:10:00,57.0,-1.7
2023/01/25 11:20:00,56.7,-0.9
2023/01/25 11:30:00,56.5, 1.1
2023/01/25 11:40:00,56.2, 0.6
2023/01/25 11:50:00,56.0, 0.3
2023/01/25 12:00:00,55.9,-0.6
2023/01/25 12:10:00,56.0,-1.6
2023/01/25 12:20:00,56.2,-1.7
2023/01/25 12:30:00,56.8,-1.2
2023/01/25 12:40:00,56.8,-1.0
2023/01/25 12:50:00,56.8,-1.2
2023/01/25 13:00:00,56.9,-1.1
2023/01/25 13:10:00,57.1,-1.3
2023/01/25 13:20:00,57.3, 1.0
2023/01/25 13:30:00,57.2,-0.4
2023/01/25 13:40:00,57.4,-1.6
2023/01/25 13:50:00,57.8,-1.4
2023/01/25 14:00:00,58.5,-0.9
2023/01/25 14:10:00,59.0, 0.2
2023/01/25 14:20:00,58.9, 0.6
2023/01/25 14:30:00,58.9,-1.0
2023/01/25 14:40:00,59.4,-0.7
2023/01/25 14:50:00,59.6,-0.2
2023/01/25 15:00:00,59.3,-1.1
2023/01/25 15:10:00,59.2,-1.4
2023/01/25 15:20:00,59.6,-1.3
2023/01/25 15:30:00,59.7,-0.7
2023/01/25 15:40:00,59.6,-0.9
2023/01/25 15:50:00,59.5,-1.5
2023/01/25 16:00:00,59.8,-1.9
2023/01/25 16:10:00,60.6,-2.3
2023/01/25 16:20:00,61.5,-1.9
2023/01/25 16:30:00,61.7,-1.8
2023/01/25 16:40:00,61.4,-2.0
2023/01/25 16:50:00,61.2,-2.1
2023/01/25 17:00:00,62.2,-1.9
2023/01/25 17:10:00,63.0,-2.0
2023/01/25 17:20:00,62.9,-2.4
2023/01/25 17:30:00,63.6,-2.5
2023/01/25 17:40:00,63.9,-2.5
2023/01/25 17:50:00,64.1,-2.6
2023/01/25 18:00:00,64.4,-2.4
2023/01/25 18:10:00,64.8,-2.6
2023/01/25 18:20:00,65.3,-2.5
2023/01/25 18:30:00,65.8,-2.5
2023/01/25 18:40:00,66.5,-2.7
2023/01/25 18:50:00,66.3,-2.6
2023/01/25 19:00:00,66.4,-2.8
2023/01/25 19:10:00,66.6,-2.6
2023/01/25 19:20:00,66.7,-2.7
2023/01/25 19:30:00,66.6,-2.7
2023/01/25 19:40:00,67.0,-2.7
2023/01/25 19:50:00,67.4,-2.9
2023/01/25 20:00:00,67.6,-2.4
2023/01/25 20:10:00,67.9,-2.8
2023/01/25 20:20:00,68.6,-2.8
2023/01/25 20:30:00,68.5,-2.7
2023/01/25 20:40:00,68.3,-2.8
2023/01/25 20:50:00,68.2,-2.7
2023/01/25 21:00:00,68.0,-2.9
2023/01/25 21:10:00,68.0,-2.8
2023/01/25 21:20:00,68.1,-2.9
2023/01/25 21:30:00,68.3,-2.7
2023/01/25 21:40:00,68.2,-2.9
2023/01/25 21:50:00,68.2,-2.9
2023/01/25 22:00:00,68.2,-2.9
2023/01/25 22:10:00,68.7,-3.1
2023/01/25 22:20:00,68.9,-3.4
2023/01/25 22:30:00,68.8,-3.7
2023/01/25 22:40:00,68.6,-4.2
2023/01/25 22:50:00,68.4,-4.8
2023/01/25 23:00:00,68.1,-5.0
2023/01/25 23:10:00,67.9,-5.3
2023/01/25 23:20:00,67.7,-5.4
2023/01/25 23:30:00,67.5,-5.5
2023/01/25 23:40:00,67.3,-5.7
2023/01/25 23:50:00,67.2,-6.2
